Tracking 27405 objects as of 1-Jun-2023
HD Live streaming from Space Station
objects crossing your sky now

STARLINK-5189

Track STARLINK-5189 now!
10-day predictions
STARLINK-5189 is classified as:


NORAD ID: 54052
Int'l Code: 2022-136B
Perigee: 546.2 km
Apogee: 547.6 km
Inclination: 53.2 °
Period: 95.4 minutes
Semi major axis: 6917 km
RCS: Unknown
Launch date: October 20, 2022
Source: United States (US)
Launch site: AIR FORCE EASTERN TEST RANGE (AFETR)
Your satellite tracking list
Your tracking list is empty




NASA's NSSDC Master Catalog

Two Line Element Set (TLE):
1 54052U 22136B   23152.05070626  .00000646  00000-0  58683-4 0  9999
2 54052  53.2159 169.8462 0001002  87.2182 272.8925 15.08839248 35023
Source of the keplerian elements: AFSPC